Tracking 28915 objects as of 29-May-2024
HD Live streaming from Space Station
objects crossing your sky now

STARLINK-4570

Track STARLINK-4570 now!
10-day predictions


NORAD ID: 53690
Int'l Code: 2022-105AU
Perigee: 568.8 km
Apogee: 571.4 km
Inclination: 97.7 °
Period: 95.9 minutes
Semi major axis: 6941 km
RCS: Unknown
Launch date: August 31, 2022
Source: United States (US)
Launch site: AIR FORCE WESTERN TEST RANGE (AFWTR)
Your satellite tracking list
Your tracking list is empty




NASA's NSSDC Master Catalog

Two Line Element Set (TLE):
1 53690U 22105AU  24150.21389888 -.00000672  00000-0 -47686-4 0  9994
2 53690  97.6574  31.2659 0001920  90.3979 269.7465 15.01272801 96076
Source of the keplerian elements: AFSPC